| time (UTC) | temp C | wind direction | speed KPH | gust KPH | rain 1hr cm | rain 24hr cm | rain mn cm | humidity % | barometer mb |
| 20260507192626 | 3 | 252 | 3.2 | 4.8 | 0.00 | 3.81 | 0.71 | 92 | 1015.7 |
| 20260507192130 | 3 | 236 | 3.2 | 6.4 | 0.00 | 3.81 | 0.71 | 93 | 1015.5 |
| 20260507191635 | 3 | 315 | 3.2 | 8.0 | 0.00 | 3.81 | 0.71 | 93 | 1015.6 |
| 20260507191140 | 3 | 344 | 6.4 | 8.0 | 0.00 | 3.81 | 0.71 | 93 | 1015.5 |
| 20260507190624 | 3 | 327 | 3.2 | 6.4 | 0.00 | 4.19 | 0.71 | 93 | 1015.4 |
| 20260507190129 | 3 | 306 | 1.6 | 6.4 | 0.00 | 4.19 | 0.71 | 93 | 1015.4 |
| 20260507185636 | 3 | 256 | 3.2 | 8.0 | 0.00 | 4.19 | 0.71 | 92 | 1015.4 |
| 20260507185140 | 3 | 254 | 4.8 | 8.0 | 0.00 | 4.19 | 0.71 | 89 | 1015.4 |
| 20260507184625 | 3 | 250 | 8.0 | 8.0 | 0.00 | 4.19 | 0.71 | 89 | 1015.2 |
| 20260507184130 | 3 | 252 | 6.4 | 9.7 | 0.00 | 4.19 | 0.71 | 90 | 1015.2 |
| 20260507183635 | 3 | 261 | 4.8 | 8.0 | 0.00 | 4.19 | 0.71 | 89 | 1015.1 |
| 20260507183140 | 3 | 261 | 3.2 | 4.8 | 0.00 | 4.19 | 0.71 | 89 | 1015.1 |
| 20260507182624 | 3 | 261 | 1.6 | 4.8 | 0.00 | 4.19 | 0.71 | 90 | 1015.1 |
| 20260507182128 | 4 | 261 | 1.6 | 3.2 | 0.00 | 4.19 | 0.71 | 91 | 1015.1 |
| 20260507181632 | 4 | 261 | 0.0 | 4.8 | 0.00 | 4.19 | 0.71 | 90 | 1014.9 |
| 20260507181136 | 4 | 288 | 1.6 | 4.8 | 0.00 | 4.19 | 0.71 | 90 | 1014.9 |
| 20260507180625 | 4 | 309 | 1.6 | 4.8 | 0.00 | 5.21 | 0.71 | 90 | 1014.7 |
| 20260507180129 | 4 | 309 | 3.2 | 4.8 | 0.00 | 5.21 | 0.71 | 91 | 1014.7 |
| 20260507175634 | 4 | 278 | 3.2 | 4.8 | 0.00 | 5.21 | 0.71 | 90 | 1014.6 |
| 20260507175137 | 4 | 272 | 3.2 | 3.2 | 0.00 | 5.21 | 0.71 | 92 | 1014.7 |
| 20260507174641 | 4 | 277 | 0.0 | 6.4 | 0.10 | 5.21 | 0.71 | 93 | 1014.6 |
| 20260507174125 | 4 | 277 | 3.2 | 6.4 | 0.20 | 5.21 | 0.71 | 91 | 1014.6 |
| 20260507173629 | 4 | 29 | 0.0 | 3.2 | 0.30 | 5.21 | 0.71 | 94 | 1014.5 |
| 20260507173132 | 3 | 29 | 0.0 | 4.8 | 0.41 | 5.21 | 0.71 | 93 | 1014.6 |
| 20260507172636 | 3 | 29 | 3.2 | 4.8 | 0.51 | 5.21 | 0.71 | 95 | 1014.5 |
| 20260507172140 | 3 | 30 | 1.6 | 4.8 | 0.61 | 5.21 | 0.71 | 95 | 1014.5 |
| 20260507171625 | 3 | 340 | 1.6 | 3.2 | 0.61 | 5.21 | 0.71 | 96 | 1014.5 |
| 20260507171133 | 3 | 340 | 0.0 | 4.8 | 0.61 | 5.21 | 0.71 | 96 | 1014.5 |
| 20260507170637 | 3 | 340 | 1.6 | 8.0 | 0.61 | 5.69 | 0.71 | 96 | 1014.5 |
| 20260507170141 | 3 | 49 | 1.6 | 9.7 | 0.61 | 5.69 | 0.71 | 96 | 1014.5 |
| 20260507165625 | 3 | 49 | 4.8 | 8.0 | 0.61 | 5.69 | 0.71 | 96 | 1014.4 |
| 20260507165137 | 3 | 88 | 1.6 | 9.7 | 0.51 | 5.59 | 0.71 | 96 | 1014.4 |
| 20260507164623 | 3 | 76 | 8.0 | 9.7 | 0.41 | 5.51 | 0.66 | 96 | 1014.4 |
| 20260507164128 | 3 | 104 | 3.2 | 9.7 | 0.41 | 5.51 | 0.66 | 96 | 1014.4 |
| 20260507163632 | 3 | 84 | 6.4 | 14.5 | 0.30 | 5.41 | 0.64 | 95 | 1014.3 |
| 20260507163135 | 3 | 124 | 6.4 | 14.5 | 0.20 | 5.31 | 0.61 | 95 | 1014.3 |
| 20260507162638 | 3 | 170 | 11.3 | 16.1 | 0.10 | 5.21 | 0.58 | 96 | 1014.2 |
| 20260507162123 | 4 | 191 | 8.0 | 11.3 | 0.00 | 5.11 | 0.56 | 96 | 1014.2 |
| 20260507161625 | 4 | 190 | 4.8 | 8.0 | 0.00 | 5.11 | 0.56 | 95 | 1014.3 |
| 20260507161133 | 4 | 233 | 6.4 | 9.7 | 0.00 | 5.11 | 0.56 | 95 | 1014.3 |
| 20260507160636 | 4 | 230 | 4.8 | 9.7 | 0.00 | 5.59 | 0.56 | 95 | 1014.3 |
| 20260507160139 | 5 | 131 | 1.6 | 9.7 | 0.00 | 5.59 | 0.56 | 95 | 1014.3 |
| 20260507155623 | 5 | 148 | 3.2 | 9.7 | 0.00 | 5.59 | 0.56 | 95 | 1014.3 |
| 20260507155127 | 5 | 151 | 3.2 | 9.7 | 0.00 | 5.59 | 0.56 | 95 | 1014.2 |
| 20260507154631 | 5 | 108 | 4.8 | 9.7 | 0.00 | 5.59 | 0.56 | 95 | 1014.2 |
| 20260507154134 | 5 | 145 | 4.8 | 9.7 | 0.00 | 5.59 | 0.56 | 95 | 1014.2 |
| 20260507153638 | 5 | 137 | 1.6 | 8.0 | 0.00 | 5.59 | 0.56 | 95 | 1014.2 |
| 20260507153141 | 4 | 223 | 1.6 | 9.7 | 0.00 | 5.59 | 0.56 | 94 | 1014.2 |
| 20260507152624 | 5 | 213 | 4.8 | 9.7 | 0.00 | 5.59 | 0.56 | 93 | 1014.2 |
| 20260507152129 | 5 | 171 | 3.2 | 8.0 | 0.00 | 5.59 | 0.56 | 92 | 1014.2 |
| 20260507151637 | 5 | 164 | 3.2 | 8.0 | 0.00 | 5.59 | 0.56 | 92 | 1014.2 |
| 20260507151141 | 5 | 163 | 3.2 | 6.4 | 0.00 | 5.59 | 0.56 | 92 | 1014.1 |
| 20260507150624 | 5 | 149 | 1.6 | 6.4 | 0.00 | 5.59 | 0.56 | 93 | 1014.1 |
| 20260507150129 | 5 | 171 | 1.6 | 6.4 | 0.00 | 5.59 | 0.56 | 94 | 1014.1 |
| 20260507145634 | 5 | 123 | 4.8 | 12.9 | 0.10 | 5.59 | 0.56 | 94 | 1014.1 |
| 20260507145138 | 5 | 167 | 8.0 | 12.9 | 0.10 | 5.59 | 0.56 | 93 | 1014.1 |
| 20260507144623 | 5 | 184 | 4.8 | 9.7 | 0.10 | 5.59 | 0.56 | 93 | 1014.0 |
| 20260507144128 | 5 | 196 | 4.8 | 11.3 | 0.10 | 5.59 | 0.56 | 91 | 1014.0 |
| 20260507143632 | 6 | 210 | 6.4 | 11.3 | 0.10 | 5.59 | 0.56 | 86 | 1014.1 |
| 20260507143136 | 6 | 218 | 4.8 | 8.0 | 0.20 | 5.59 | 0.56 | 87 | 1014.1 |
| 20260507142624 | 6 | 244 | 1.6 | 9.7 | 0.20 | 5.59 | 0.56 | 90 | 1014.0 |
| 20260507142129 | 6 | 132 | 3.2 | 9.7 | 0.20 | 5.59 | 0.56 | 93 | 1014.0 |
| 20260507141633 | 5 | 109 | 3.2 | 6.4 | 0.20 | 5.59 | 0.56 | 96 | 1014.0 |
| 20260507141138 | 5 | 238 | 1.6 | 9.7 | 0.20 | 5.59 | 0.56 | 94 | 1014.1 |
| 20260507140623 | 5 | 252 | 3.2 | 9.7 | 0.30 | 5.69 | 0.56 | 94 | 1014.2 |
| 20260507140129 | 5 | 167 | 6.4 | 9.7 | 0.20 | 5.59 | 0.53 | 95 | 1014.2 |
| 20260507135633 | 4 | 215 | 1.6 | 6.4 | 0.20 | 5.59 | 0.53 | 93 | 1014.2 |
| 20260507135137 | 4 | 196 | 1.6 | 12.9 | 0.30 | 5.59 | 0.53 | 94 | 1014.2 |
| 20260507134642 | 4 | 180 | 4.8 | 12.9 | 0.30 | 5.59 | 0.53 | 93 | 1014.2 |
| 20260507134127 | 5 | 196 | 8.0 | 12.9 | 0.30 | 5.59 | 0.53 | 93 | 1014.2 |
| 20260507133631 | 5 | 109 | 6.4 | 12.9 | 0.30 | 5.59 | 0.53 | 91 | 1014.2 |
| 20260507133139 | 5 | 180 | 3.2 | 8.0 | 0.20 | 5.51 | 0.51 | 92 | 1014.2 |
| 20260507132623 | 5 | 137 | 3.2 | 6.4 | 0.30 | 5.51 | 0.51 | 92 | 1014.2 |
| 20260507132127 | 4 | 261 | 1.6 | 6.4 | 0.30 | 5.51 | 0.51 | 88 | 1014.2 |
| 20260507131631 | 4 | 261 | 1.6 | 9.7 | 0.30 | 5.51 | 0.51 | 90 | 1014.2 |
| 20260507131134 | 4 | 233 | 4.8 | 9.7 | 0.30 | 5.51 | 0.51 | 90 | 1014.2 |
| 20260507130638 | 4 | 257 | 3.2 | 4.8 | 0.20 | 5.59 | 0.48 | 88 | 1014.2 |
| 20260507130122 | 3 | 351 | 4.8 | 9.7 | 0.30 | 5.59 | 0.48 | 88 | 1014.2 |
| 20260507125622 | 3 | 329 | 6.4 | 9.7 | 0.30 | 5.59 | 0.48 | 87 | 1014.3 |
| 20260507125129 | 3 | 41 | 6.4 | 11.3 | 0.20 | 5.51 | 0.46 | 88 | 1014.3 |
| 20260507124633 | 3 | 117 | 4.8 | 11.3 | 0.30 | 5.51 | 0.46 | 90 | 1014.3 |
| 20260507124136 | 3 | 127 | 3.2 | 6.4 | 0.30 | 5.51 | 0.46 | 90 | 1014.2 |
| 20260507123623 | 3 | 95 | 4.8 | 6.4 | 0.41 | 5.51 | 0.46 | 90 | 1014.2 |
| 20260507123130 | 3 | 82 | 4.8 | 6.4 | 0.30 | 5.41 | 0.43 | 90 | 1014.2 |
| 20260507122632 | 3 | 342 | 1.6 | 6.4 | 0.41 | 5.41 | 0.43 | 90 | 1014.2 |
| 20260507122137 | 3 | 348 | 3.2 | 12.9 | 0.51 | 5.41 | 0.43 | 90 | 1014.2 |
| 20260507121640 | 3 | 13 | 6.4 | 16.1 | 0.51 | 5.41 | 0.43 | 92 | 1014.2 |
| 20260507121124 | 3 | 246 | 12.9 | 27.4 | 0.51 | 5.41 | 0.43 | 94 | 1014.1 |
| 20260507120629 | 4 | 338 | 14.5 | 27.4 | 0.61 | 5.41 | 0.43 | 95 | 1014.1 |
| 20260507120132 | 4 | 170 | 6.4 | 12.9 | 0.51 | 5.31 | 0.41 | 95 | 1014.0 |
| 20260507115636 | 3 | 207 | 1.6 | 8.0 | 0.51 | 5.31 | 0.41 | 94 | 1014.2 |
| 20260507115139 | 3 | 125 | 4.8 | 11.3 | 0.51 | 5.31 | 0.41 | 93 | 1014.0 |
| 20260507114628 | 3 | 221 | 3.2 | 12.9 | 0.41 | 5.21 | 0.38 | 93 | 1014.1 |
| 20260507114133 | 3 | 276 | 1.6 | 11.3 | 0.41 | 5.21 | 0.38 | 92 | 1014.1 |
| 20260507113637 | 3 | 101 | 3.2 | 14.5 | 0.30 | 5.11 | 0.36 | 94 | 1014.0 |
| 20260507113142 | 3 | 170 | 8.0 | 14.5 | 0.30 | 5.11 | 0.36 | 94 | 1014.1 |
| 20260507112628 | 3 | 287 | 3.2 | 6.4 | 0.20 | 5.00 | 0.33 | 93 | 1014.1 |
| 20260507112133 | 3 | 309 | 4.8 | 12.9 | 0.10 | 4.90 | 0.30 | 93 | 1014.0 |
| 20260507111638 | 3 | 279 | 8.0 | 14.5 | 0.10 | 4.90 | 0.30 | 93 | 1014.1 |
| 20260507111123 | 3 | 251 | 8.0 | 16.1 | 0.10 | 4.90 | 0.30 | 94 | 1014.1 |
| 20260507110628 | 3 | 266 | 12.9 | 16.1 | 0.00 | 4.80 | 0.28 | 93 | 1014.1 |
| 20260507110131 | 3 | 226 | 3.2 | 11.3 | 0.00 | 4.80 | 0.28 | 93 | 1014.1 |
| 20260507105635 | 3 | 225 | 6.4 | 12.9 | 0.00 | 4.80 | 0.28 | 92 | 1014.1 |
| 20260507105124 | 3 | 196 | 8.0 | 16.1 | 0.00 | 4.80 | 0.28 | 92 | 1014.0 |
| 20260507104627 | 4 | 152 | 6.4 | 17.7 | 0.00 | 4.80 | 0.28 | 93 | 1014.0 |
| 20260507104131 | 4 | 103 | 11.3 | 17.7 | 0.00 | 4.80 | 0.28 | 95 | 1014.1 |
| 20260507103636 | 3 | 180 | 9.7 | 16.1 | 0.00 | 4.80 | 0.28 | 96 | 1014.1 |
| 20260507103140 | 3 | 216 | 9.7 | 16.1 | 0.00 | 4.80 | 0.28 | 95 | 1014.1 |
| 20260507102625 | 3 | 234 | 9.7 | 16.1 | 0.00 | 4.80 | 0.28 | 95 | 1014.1 |
| 20260507102129 | 3 | 167 | 6.4 | 12.9 | 0.00 | 4.80 | 0.28 | 95 | 1014.0 |
| 20260507101633 | 3 | 216 | 8.0 | 11.3 | 0.00 | 4.80 | 0.28 | 95 | 1014.0 |
| 20260507101137 | 3 | 243 | 6.4 | 12.9 | 0.00 | 4.80 | 0.28 | 94 | 1014.0 |
| 20260507100641 | 3 | 209 | 6.4 | 12.9 | 0.00 | 6.40 | 0.28 | 94 | 1014.1 |
| 20260507100130 | 3 | 213 | 6.4 | 12.9 | 0.00 | 6.40 | 0.28 | 94 | 1014.0 |
| 20260507095632 | 3 | 207 | 8.0 | 14.5 | 0.00 | 6.40 | 0.28 | 95 | 1014.0 |
| 20260507095136 | 3 | 200 | 4.8 | 14.5 | 0.00 | 6.40 | 0.28 | 92 | 1013.9 |
| 20260507094640 | 3 | 205 | 4.8 | 14.5 | 0.00 | 6.40 | 0.28 | 92 | 1013.9 |
| 20260507094123 | 3 | 192 | 6.4 | 16.1 | 0.00 | 6.40 | 0.28 | 92 | 1013.9 |
| 20260507093628 | 3 | 109 | 4.8 | 16.1 | 0.00 | 6.40 | 0.28 | 93 | 1013.9 |
| 20260507093131 | 3 | 209 | 8.0 | 16.1 | 0.00 | 6.40 | 0.28 | 92 | 1013.8 |
| 20260507092634 | 4 | 229 | 6.4 | 12.9 | 0.00 | 6.40 | 0.28 | 92 | 1013.8 |
| 20260507092137 | 4 | 200 | 8.0 | 12.9 | 0.00 | 6.40 | 0.28 | 96 | 1013.8 |
| 20260507091641 | 3 | 117 | 1.6 | 8.0 | 0.10 | 6.40 | 0.28 | 96 | 1013.8 |
| 20260507091126 | 3 | 247 | 1.6 | 6.4 | 0.10 | 6.40 | 0.28 | 96 | 1013.8 |
| 20260507090635 | 3 | 232 | 3.2 | 8.0 | 0.10 | 7.70 | 0.28 | 96 | 1013.8 |
| 20260507090140 | 3 | 160 | 4.8 | 9.7 | 0.10 | 7.70 | 0.28 | 95 | 1013.8 |
| 20260507085624 | 3 | 180 | 6.4 | 9.7 | 0.10 | 7.70 | 0.28 | 96 | 1013.7 |
| 20260507085128 | 3 | 209 | 1.6 | 4.8 | 0.10 | 7.70 | 0.28 | 96 | 1013.7 |
| 20260507084634 | 2 | 244 | 1.6 | 11.3 | 0.10 | 7.70 | 0.28 | 95 | 1013.6 |
| 20260507084128 | 3 | 195 | 4.8 | 11.3 | 0.10 | 7.70 | 0.28 | 95 | 1013.6 |
| 20260507083632 | 3 | 158 | 3.2 | 11.3 | 0.10 | 7.70 | 0.28 | 96 | 1013.5 |
| 20260507083135 | 3 | 108 | 3.2 | 11.3 | 0.20 | 7.70 | 0.28 | 95 | 1013.4 |
| 20260507082640 | 2 | 18 | 1.6 | 9.7 | 0.20 | 7.70 | 0.28 | 95 | 1013.4 |
| 20260507082123 | 2 | 170 | 6.4 | 9.7 | 0.20 | 7.70 | 0.28 | 94 | 1013.4 |
| 20260507081628 | 2 | 160 | 6.4 | 9.7 | 0.10 | 7.59 | 0.25 | 94 | 1013.3 |
| 20260507081136 | 3 | 156 | 4.8 | 9.7 | 0.10 | 7.59 | 0.25 | 93 | 1013.2 |
| 20260507080641 | 3 | 177 | 6.4 | 8.0 | 0.10 | 7.59 | 0.25 | 93 | 1013.2 |
| 20260507080124 | 3 | 165 | 3.2 | 8.0 | 0.20 | 7.59 | 0.25 | 93 | 1013.1 |
| 20260507075627 | 3 | 188 | 3.2 | 8.0 | 0.20 | 7.59 | 0.25 | 93 | 1013.0 |
| 20260507075133 | 3 | 143 | 1.6 | 8.0 | 0.20 | 7.59 | 0.25 | 95 | 1013.1 |
| 20260507074635 | 3 | 155 | 1.6 | 9.7 | 0.30 | 7.59 | 0.25 | 94 | 1013.0 |
| 20260507074139 | 2 | 184 | 6.4 | 11.3 | 0.30 | 7.59 | 0.25 | 93 | 1013.0 |
| 20260507073623 | 3 | 236 | 4.8 | 8.0 | 0.41 | 7.59 | 0.25 | 94 | 1013.0 |
| 20260507073128 | 3 | 130 | 1.6 | 6.4 | 0.30 | 7.49 | 0.23 | 94 | 1012.9 |
| 20260507072632 | 3 | 243 | 1.6 | 6.4 | 0.30 | 7.49 | 0.23 | 94 | 1013.0 |
| 20260507072136 | 3 | 163 | 3.2 | 8.0 | 0.30 | 7.49 | 0.23 | 94 | 1012.9 |
| 20260507071625 | 3 | 124 | 1.6 | 8.0 | 0.41 | 7.49 | 0.23 | 92 | 1012.8 |
| 20260507071130 | 3 | 157 | 3.2 | 8.0 | 0.41 | 7.49 | 0.23 | 92 | 1012.8 |
| 20260507070633 | 3 | 246 | 3.2 | 6.4 | 0.30 | 7.49 | 0.20 | 92 | 1012.7 |
| 20260507070137 | 3 | 213 | 1.6 | 4.8 | 0.30 | 7.49 | 0.20 | 92 | 1012.7 |
| 20260507065622 | 3 | 231 | 1.6 | 4.8 | 0.41 | 7.49 | 0.20 | 91 | 1012.6 |
| 20260507065127 | 3 | 202 | 1.6 | 6.4 | 0.41 | 7.49 | 0.20 | 94 | 1012.6 |
| 20260507064632 | 3 | 116 | 1.6 | 4.8 | 0.30 | 7.39 | 0.18 | 93 | 1012.5 |
| 20260507064137 | 3 | 98 | 3.2 | 4.8 | 0.41 | 7.39 | 0.18 | 93 | 1012.5 |
| 20260507063642 | 3 | 135 | 1.6 | 4.8 | 0.30 | 7.29 | 0.15 | 92 | 1012.5 |
| 20260507063126 | 3 | 154 | 1.6 | 9.7 | 0.30 | 7.29 | 0.15 | 92 | 1012.6 |
| 20260507062633 | 3 | 120 | 1.6 | 9.7 | 0.30 | 7.29 | 0.15 | 91 | 1012.5 |
| 20260507062136 | 3 | 180 | 3.2 | 4.8 | 0.30 | 7.29 | 0.15 | 93 | 1012.5 |
| 20260507061641 | 2 | 188 | 3.2 | 4.8 | 0.20 | 7.19 | 0.13 | 90 | 1012.4 |
| 20260507061123 | 2 | 89 | 0.0 | 4.8 | 0.20 | 7.19 | 0.13 | 90 | 1012.4 |
| 20260507060628 | 2 | 90 | 1.6 | 4.8 | 0.20 | 8.20 | 0.13 | 90 | 1012.3 |
| 20260507060132 | 2 | 99 | 3.2 | 4.8 | 0.20 | 8.20 | 0.13 | 89 | 1012.3 |
| 20260507055638 | 3 | 102 | 3.2 | 6.4 | 0.10 | 8.10 | 0.10 | 89 | 1012.3 |
| 20260507055142 | 3 | 74 | 4.8 | 6.4 | 0.10 | 8.10 | 0.10 | 89 | 1012.3 |
| 20260507054627 | 3 | 130 | 1.6 | 4.8 | 0.00 | 8.00 | 0.08 | 92 | 1012.3 |
| 20260507054131 | 2 | 159 | 1.6 | 6.4 | 0.00 | 8.00 | 0.08 | 92 | 1012.3 |
| 20260507053636 | 2 | 186 | 1.6 | 6.4 | 0.00 | 8.00 | 0.08 | 92 | 1012.2 |
| 20260507053126 | 2 | 268 | 0.0 | 3.2 | 0.00 | 8.00 | 0.08 | 90 | 1012.1 |
| 20260507052629 | 2 | 268 | 1.6 | 4.8 | 0.00 | 8.00 | 0.08 | 91 | 1012.1 |
| 20260507052132 | 2 | 268 | 1.6 | 4.8 | 0.00 | 8.00 | 0.08 | 91 | 1012.0 |
| 20260507051636 | 2 | 268 | 1.6 | 3.2 | 0.00 | 8.00 | 0.08 | 91 | 1012.0 |
| 20260507051140 | 2 | 268 | 1.6 | 1.6 | 0.00 | 8.00 | 0.08 | 91 | 1011.9 |
| 20260507050626 | 2 | 268 | 0.0 | 4.8 | 0.00 | 8.20 | 0.08 | 90 | 1011.9 |
| 20260507050130 | 2 | 268 | 1.6 | 6.4 | 0.00 | 8.20 | 0.08 | 90 | 1011.8 |
| 20260507045635 | 2 | 268 | 3.2 | 6.4 | 0.00 | 8.20 | 0.08 | 90 | 1011.8 |
| 20260507045139 | 2 | 261 | 4.8 | 6.4 | 0.00 | 8.20 | 0.08 | 90 | 1011.7 |
| 20260507044624 | 2 | 292 | 1.6 | 4.8 | 0.00 | 8.20 | 0.08 | 90 | 1011.7 |
| 20260507044132 | 2 | 292 | 3.2 | 4.8 | 0.00 | 8.20 | 0.08 | 90 | 1011.6 |
| 20260507043637 | 2 | 284 | 1.6 | 8.0 | 0.00 | 8.20 | 0.08 | 90 | 1011.7 |
| 20260507043141 | 2 | 336 | 3.2 | 16.1 | 0.00 | 8.20 | 0.08 | 90 | 1011.6 |
| 20260507042627 | 2 | 326 | 8.0 | 17.7 | 0.00 | 8.20 | 0.08 | 90 | 1011.7 |
| 20260507042130 | 1 | 333 | 16.1 | 17.7 | 0.00 | 8.20 | 0.08 | 90 | 1011.7 |
| 20260507041635 | 1 | 314 | 9.7 | 14.5 | 0.00 | 8.20 | 0.08 | 90 | 1011.7 |
| 20260507041140 | 1 | 313 | 9.7 | 17.7 | 0.00 | 8.20 | 0.08 | 90 | 1011.6 |
| 20260507040626 | 1 | 296 | 11.3 | 19.3 | 0.00 | 8.31 | 0.08 | 90 | 1011.6 |
| 20260507040129 | 1 | 322 | 14.5 | 19.3 | 0.00 | 8.31 | 0.08 | 90 | 1011.6 |
| 20260507035633 | 1 | 310 | 12.9 | 17.7 | 0.00 | 8.31 | 0.08 | 91 | 1011.6 |
| 20260507035137 | 1 | 321 | 12.9 | 17.7 | 0.00 | 8.31 | 0.08 | 92 | 1011.7 |
| 20260507034625 | 1 | 22 | 4.8 | 8.0 | 0.00 | 8.31 | 0.08 | 93 | 1011.7 |
| 20260507034129 | 1 | 158 | 1.6 | 9.7 | 0.00 | 8.31 | 0.08 | 92 | 1011.7 |
| 20260507033633 | 1 | 205 | 4.8 | 9.7 | 0.00 | 8.31 | 0.08 | 89 | 1011.7 |
| 20260507033137 | 2 | 297 | 0.0 | 9.7 | 0.00 | 8.31 | 0.08 | 90 | 1011.7 |
| 20260507032622 | 1 | 323 | 6.4 | 16.1 | 0.00 | 8.31 | 0.08 | 90 | 1011.6 |
| 20260507032126 | 1 | 349 | 8.0 | 20.9 | 0.00 | 8.31 | 0.08 | 91 | 1011.6 |
| 20260507031630 | 1 | 329 | 12.9 | 20.9 | 0.00 | 8.31 | 0.08 | 92 | 1011.6 |
| 20260507031133 | 1 | 324 | 16.1 | 19.3 | 0.00 | 8.31 | 0.08 | 94 | 1011.6 |
| 20260507030637 | 1 | 22 | 12.9 | 16.1 | 0.10 | 8.41 | 0.08 | 94 | 1011.7 |
| 20260507030142 | 1 | 304 | 4.8 | 12.9 | 0.10 | 8.41 | 0.08 | 95 | 1011.7 |
| 20260507025631 | 1 | 336 | 9.7 | 16.1 | 0.10 | 8.41 | 0.08 | 96 | 1011.7 |
| 20260507025136 | 1 | 328 | 6.4 | 19.3 | 0.10 | 8.41 | 0.08 | 96 | 1011.7 |
| 20260507024641 | 0 | 326 | 14.5 | 19.3 | 0.10 | 8.41 | 0.08 | 95 | 1011.7 |
| 20260507024126 | 1 | 312 | 6.4 | 12.9 | 0.10 | 8.41 | 0.08 | 96 | 1011.6 |
| 20260507023631 | 1 | 246 | 1.6 | 6.4 | 0.10 | 8.41 | 0.08 | 96 | 1011.5 |
| 20260507023136 | 1 | 37 | 3.2 | 6.4 | 0.10 | 8.41 | 0.08 | 95 | 1011.4 |
| 20260507022640 | 1 | 120 | 0.0 | 8.0 | 0.10 | 8.41 | 0.08 | 95 | 1011.6 |
| 20260507022125 | 1 | 121 | 4.8 | 24.1 | 0.10 | 8.41 | 0.08 | 95 | 1011.5 |
| 20260507021629 | 1 | 140 | 4.8 | 24.1 | 0.10 | 8.41 | 0.08 | 95 | 1011.5 |
| 20260507021131 | 1 | 178 | 6.4 | 9.7 | 0.20 | 8.41 | 0.08 | 95 | 1011.4 |
| 20260507020635 | 1 | 19 | 0.0 | 4.8 | 0.10 | 8.41 | 0.05 | 94 | 1011.3 |
| 20260507020123 | 1 | 23 | 3.2 | 4.8 | 0.10 | 8.41 | 0.05 | 94 | 1011.3 |
| 20260507015628 | 1 | 63 | 3.2 | 11.3 | 0.10 | 8.41 | 0.05 | 94 | 1011.3 |
| 20260507015131 | 1 | 132 | 1.6 | 17.7 | 0.10 | 8.41 | 0.05 | 94 | 1011.2 |
| 20260507014635 | 1 | 74 | 8.0 | 17.7 | 0.10 | 8.41 | 0.05 | 94 | 1011.1 |
| 20260507014140 | 2 | 88 | 11.3 | 17.7 | 0.10 | 8.41 | 0.05 | 94 | 1011.0 |
| 20260507013625 | 2 | 259 | 6.4 | 14.5 | 0.10 | 8.41 | 0.05 | 93 | 1010.9 |
| 20260507013128 | 2 | 132 | 8.0 | 11.3 | 0.10 | 8.41 | 0.05 | 93 | 1011.0 |
| 20260507012632 | 2 | 136 | 4.8 | 9.7 | 0.10 | 8.41 | 0.05 | 92 | 1011.0 |
| 20260507012136 | 2 | 76 | 3.2 | 4.8 | 0.10 | 8.41 | 0.05 | 92 | 1011.0 |
| 20260507011640 | 2 | 157 | 1.6 | 4.8 | 0.10 | 8.41 | 0.05 | 92 | 1011.1 |
| 20260507011127 | 2 | 299 | 0.0 | 6.4 | 0.00 | 8.31 | 0.03 | 92 | 1011.1 |
| 20260507010631 | 2 | 305 | 3.2 | 6.4 | 0.00 | 8.99 | 0.03 | 92 | 1011.2 |
| 20260507010135 | 2 | 312 | 3.2 | 4.8 | 0.00 | 8.99 | 0.03 | 92 | 1011.3 |
| 20260507005639 | 2 | 5 | 1.6 | 4.8 | 0.00 | 8.99 | 0.03 | 92 | 1011.3 |
| 20260507005124 | 2 | 19 | 3.2 | 4.8 | 0.00 | 8.99 | 0.03 | 93 | 1011.3 |
| 20260507004628 | 2 | 279 | 3.2 | 6.4 | 0.00 | 8.99 | 0.03 | 93 | 1011.4 |
| 20260507004133 | 2 | 278 | 4.8 | 6.4 | 0.00 | 8.99 | 0.03 | 92 | 1011.5 |
| 20260507003638 | 2 | 310 | 4.8 | 6.4 | 0.00 | 8.99 | 0.03 | 91 | 1011.5 |
| 20260507003123 | 2 | 310 | 3.2 | 4.8 | 0.00 | 8.99 | 0.03 | 91 | 1011.5 |
| 20260507002628 | 2 | 310 | 1.6 | 6.4 | 0.00 | 8.99 | 0.03 | 91 | 1011.6 |
| 20260507002132 | 2 | 47 | 1.6 | 9.7 | 0.10 | 8.99 | 0.03 | 91 | 1011.7 |
| 20260507001640 | 2 | 325 | 6.4 | 12.9 | 0.10 | 8.99 | 0.03 | 91 | 1011.6 |
| 20260507001125 | 2 | 337 | 6.4 | 9.7 | 0.10 | 8.99 | 0.03 | 92 | 1011.6 |
| 20260507000630 | 2 | 266 | 8.0 | 9.7 | 0.10 | 9.50 | 0.03 | 93 | 1011.7 |
| 20260507000135 | 2 | 308 | 6.4 | 6.4 | 0.10 | 9.50 | 0.03 | 92 | 1011.6 |
| 20260506235640 | 2 | 266 | 1.6 | 4.8 | 0.10 | 9.50 | 0.03 | 92 | 1011.7 |
| 20260506235126 | 2 | 266 | 1.6 | 4.8 | 0.10 | 9.50 | 0.03 | 92 | 1011.6 |
| 20260506234630 | 2 | 266 | 1.6 | 4.8 | 0.10 | 9.50 | 0.03 | 92 | 1011.6 |
| 20260506234135 | 2 | 266 | 1.6 | 4.8 | 0.10 | 9.50 | 0.03 | 92 | 1011.7 |
| 20260506233640 | 2 | 266 | 3.2 | 4.8 | 0.10 | 9.50 | 0.03 | 92 | 1011.7 |
| 20260506233125 | 2 | 292 | 1.6 | 4.8 | 0.10 | 9.50 | 0.03 | 91 | 1011.6 |
| 20260506232633 | 2 | 300 | 3.2 | 8.0 | 0.10 | 9.50 | 0.03 | 91 | 1011.6 |
| 20260506232138 | 2 | 241 | 3.2 | 11.3 | 0.00 | 9.40 | 0.00 | 90 | 1011.6 |
| 20260506231642 | 2 | 264 | 4.8 | 9.7 | 0.00 | 9.40 | 0.00 | 90 | 1011.6 |
| 20260506231125 | 2 | 269 | 3.2 | 8.0 | 0.00 | 9.40 | 0.00 | 90 | 1011.6 |
| 20260506230629 | 2 | 347 | 1.6 | 8.0 | 0.00 | 10.21 | 0.00 | 89 | 1011.5 |
| 20260506230134 | 2 | 224 | 3.2 | 8.0 | 0.00 | 10.21 | 0.00 | 89 | 1011.4 |
| 20260506225638 | 2 | 224 | 6.4 | 8.0 | 0.10 | 10.21 | 0.00 | 88 | 1011.4 |
| 20260506225125 | 2 | 191 | 4.8 | 9.7 | 0.10 | 10.21 | 0.00 | 88 | 1011.4 |
| 20260506224629 | 2 | 298 | 3.2 | 9.7 | 0.10 | 10.21 | 0.00 | 89 | 1011.6 |
| 20260506224133 | 2 | 283 | 6.4 | 9.7 | 0.10 | 10.21 | 0.00 | 89 | 1011.6 |
| 20260506223623 | 2 | 15 | 6.4 | 11.3 | 0.10 | 10.21 | 0.00 | 89 | 1011.5 |
| 20260506223128 | 2 | 221 | 3.2 | 6.4 | 0.10 | 10.21 | 0.00 | 89 | 1011.6 |
| 20260506222632 | 2 | 69 | 3.2 | 8.0 | 0.20 | 10.21 | 0.00 | 89 | 1011.6 |
| 20260506222136 | 2 | 328 | 3.2 | 8.0 | 0.20 | 10.21 | 0.00 | 90 | 1011.7 |
| 20260506221641 | 2 | 338 | 4.8 | 9.7 | 0.20 | 10.21 | 0.00 | 90 | 1011.7 |
| 20260506221126 | 2 | 355 | 6.4 | 9.7 | 0.20 | 10.21 | 0.00 | 91 | 1011.7 |
| 20260506220630 | 2 | 10 | 3.2 | 8.0 | 0.20 | 10.90 | 2.59 | 91 | 1011.7 |
| 20260506220134 | 2 | 26 | 6.4 | 11.3 | 0.30 | 10.90 | 2.59 | 92 | 1011.7 |
| 20260506215637 | 2 | 59 | 4.8 | 11.3 | 0.20 | 10.79 | 2.57 | 93 | 1011.7 |
| 20260506215142 | 2 | 46 | 3.2 | 11.3 | 0.20 | 10.79 | 2.57 | 94 | 1011.6 |
| 20260506214625 | 2 | 110 | 4.8 | 11.3 | 0.30 | 10.79 | 2.57 | 93 | 1011.7 |
| 20260506214134 | 2 | 90 | 6.4 | 11.3 | 0.30 | 10.79 | 2.57 | 93 | 1011.6 |
| 20260506213639 | 2 | 155 | 3.2 | 9.7 | 0.30 | 10.79 | 2.57 | 92 | 1011.7 |
| 20260506213125 | 2 | 230 | 3.2 | 11.3 | 0.30 | 10.79 | 2.57 | 92 | 1011.7 |
| 20260506212629 | 2 | 256 | 1.6 | 17.7 | 0.20 | 10.69 | 2.54 | 92 | 1011.8 |
| 20260506212133 | 2 | 257 | 8.0 | 20.9 | 0.30 | 10.69 | 2.54 | 92 | 1011.7 |
| 20260506211637 | 2 | 245 | 16.1 | 20.9 | 0.30 | 10.69 | 2.54 | 91 | 1011.7 |
| 20260506211142 | 2 | 279 | 6.4 | 17.7 | 0.30 | 10.69 | 2.54 | 91 | 1011.7 |
| 20260506210627 | 2 | 260 | 14.5 | 19.3 | 0.41 | 10.90 | 2.54 | 91 | 1011.6 |
| 20260506210131 | 2 | 259 | 12.9 | 19.3 | 0.30 | 10.79 | 2.51 | 92 | 1011.6 |
| 20260506205634 | 2 | 309 | 9.7 | 19.3 | 0.30 | 10.79 | 2.51 | 92 | 1011.6 |
| 20260506205123 | 2 | 298 | 12.9 | 19.3 | 0.41 | 10.79 | 2.51 | 94 | 1011.7 |
| 20260506204627 | 2 | 277 | 4.8 | 11.3 | 0.30 | 10.69 | 2.49 | 96 | 1011.7 |
| 20260506204132 | 2 | 310 | 6.4 | 14.5 | 0.41 | 10.69 | 2.49 | 96 | 1011.7 |
| 20260506203636 | 1 | 343 | 9.7 | 19.3 | 0.41 | 10.69 | 2.49 | 96 | 1011.6 |
| 20260506203141 | 1 | 9 | 12.9 | 20.9 | 0.51 | 10.69 | 2.49 | 96 | 1011.7 |
| 20260506202626 | 1 | 330 | 12.9 | 24.1 | 0.41 | 10.59 | 2.46 | 95 | 1011.7 |
| 20260506202130 | 1 | 333 | 19.3 | 24.1 | 0.41 | 10.59 | 2.46 | 94 | 1011.6 |
| 20260506201635 | 2 | 327 | 6.4 | 12.9 | 0.51 | 10.59 | 2.46 | 95 | 1011.6 |
| 20260506201139 | 2 | 260 | 9.7 | 16.1 | 0.51 | 10.59 | 2.46 | 95 | 1011.6 |
| 20260506200625 | 2 | 229 | 11.3 | 16.1 | 0.41 | 10.69 | 2.44 | 95 | 1011.5 |
| 20260506200130 | 2 | 246 | 4.8 | 8.0 | 0.41 | 10.69 | 2.44 | 95 | 1011.5 |
| 20260506195638 | 2 | 167 | 3.2 | 11.3 | 0.51 | 10.69 | 2.44 | 95 | 1011.4 |
| 20260506195123 | 2 | 155 | 6.4 | 14.5 | 0.41 | 10.59 | 2.41 | 94 | 1011.3 |
| 20260506194628 | 2 | 115 | 8.0 | 14.5 | 0.51 | 10.59 | 2.41 | 93 | 1011.2 |
| 20260506194131 | 2 | 110 | 9.7 | 19.3 | 0.41 | 10.49 | 2.39 | 92 | 1011.2 |
| 20260506193634 | 2 | 117 | 9.7 | 19.3 | 0.41 | 10.49 | 2.39 | 91 | 1011.2 |
| 20260506193138 | 2 | 122 | 4.8 | 16.1 | 0.41 | 10.39 | 2.36 | 89 | 1011.1 |